[[{"header":{"parameterUnit":"m.s-1","parameterCategory":1,"la1":30.2991,"la2":30.254,"lo1":-89.0895,"lo2":-89.0444,"dy":0.0017,"dx":0.0017,"nx":28,"ny":28,"refTime":"2025-09-01T03:00:00:Z","depth":0,"parameterNumber":2,"parameterNumberName":"U-component_of_WINDS"},"data":[0,0,0,0,0,0,0,0,0,0,0,0,0,0,0,0,0,0,0,0,0,0,0,0,0,0,0,0,0,0,0,0,0,0,0,0,0,0,0,0,0,0,0,0,0,0,0,0,0,0,0,0,0,0,0,0,0,0,-3.6334,-3.6333,0,-3.6274,-3.6273,-3.6272,-3.6127,-3.6124,-3.6121,-3.6118,-3.6059,-3.6061,-3.6062,0,0,0,0,0,0,0,0,0,0,0,0,0,-3.6327,-3.6327,-3.6334,-3.6333,-3.6332,-3.6274,-3.6273,-3.6272,-3.6127,-3.6124,-3.612,-3.6117,-3.6059,-3.606,-3.6062,0,0,0,0,0,0,0,0,0,0,0,0,0,-3.6305,-3.6328,-3.6334,-3.6253,-3.6245,-3.6274,-3.6273,-3.6272,-3.6128,-3.6124,-3.6119,-3.6115,-3.6058,-3.606,-3.6062,-3.6166,0,0,-3.6068,-3.6069,0,0,0,0,0,0,0,0,-3.6306,-3.6305,-3.6265,-3.6258,-3.625,-3.6203,-3.6249,-3.6237,-3.6129,-3.6173,-3.6118,-3.6113,-3.6111,-3.6108,-3.6107,-3.6163,-3.6161,-3.6068,-3.6069,-3.607,-3.6071,0,0,0,0,0,0,0,-3.6308,-3.6307,-3.631,-3.6265,-3.6255,-3.6221,-3.6213,-3.6246,-3.6168,-3.6169,-3.6158,-3.6153,-3.6106,-3.6106,-3.6105,-3.616,-3.6068,-3.607,-3.6071,-3.6072,-3.63,-3.6304,0,0,0,0,0,0,-3.6321,-3.6309,-3.6312,-3.6308,-3.6267,-3.6225,-3.6215,-3.6223,-3.6168,-3.6155,-3.6157,-3.6146,-3.6105,-3.6103,-3.6102,-3.622,-3.607,-3.6072,-3.6073,-3.6295,-3.6301,-3.6306,0,0,0,0,0,0,-3.6321,-3.6322,-3.6314,-3.6306,-3.6302,-3.623,-3.6239,-3.6224,-3.6223,-3.6158,-3.6144,-3.617,-3.6101,-3.6099,-3.6151,-3.6216,-3.6073,-3.6075,-3.6289,-3.6297,-3.6303,-3.6458,0,0,0,0,0,0,-3.6321,-3.6323,-3.6361,-3.6308,-3.6303,-3.6364,-3.6243,-3.6226,-3.6227,-3.6213,-3.6168,-3.6156,-3.6097,-3.6149,-3.6153,-3.6217,-3.6076,-3.6283,-3.6293,-3.6301,-3.6447,-3.647,-3.649,0,0,0,0,0,-3.6322,-3.6407,-3.6363,-3.6364,-3.6348,-3.6367,-3.6365,-3.6295,-3.6233,-3.6271,-3.6229,-3.6157,-3.6209,-3.6156,-3.6159,-3.6224,-3.6278,-3.629,-3.63,-3.6437,-3.6465,-3.6489,0,0,0,0,0,0,-3.6469,-3.6398,-3.6349,-3.6419,-3.6401,-3.6343,-3.6388,-3.6327,-3.6326,-3.6312,-3.6227,-3.6218,-3.6282,-3.6258,-3.62,-3.6323,-3.6232,-3.6245,-3.6335,-3.6361,-3.6382,-3.6386,-3.6078,0,0,0,0,0,-3.651,-3.6531,-3.6468,-3.6536,-3.6529,-3.6461,-3.6467,-3.6415,-3.6392,-3.6384,-3.6346,-3.6328,-3.634,-3.6349,-3.6357,-3.6444,-3.6432,-3.649,-3.6512,-3.6529,-3.6541,-3.6586,-3.6611,-3.6342,-3.6342,-3.6342,0,0,-3.6594,-3.6558,-3.6576,-3.6565,-3.6544,-3.6569,-3.6455,-3.6485,-3.6503,-3.6388,-3.6434,-3.6407,-3.6381,-3.6452,-3.6481,-3.6434,-3.6613,-3.6543,-3.6558,-3.6559,-3.66,-3.6626,-3.6649,-3.635,-3.6348,-3.6347,0,0,-3.676,-3.6734,-3.6789,-3.6771,-3.6741,-3.6696,-3.671,-3.6662,-3.6639,-3.6684,-3.6599,-3.662,-3.6642,-3.6628,-3.6624,-3.6788,-3.6722,-3.6793,-3.6904,-3.695,-3.6971,-3.6989,-3.7048,-3.7071,-3.6805,-3.6805,-3.6805,0,-3.6868,-3.69,-3.6825,-3.6861,-3.6859,-3.6757,-3.6813,-3.6799,-3.6774,-3.6776,-3.6724,-3.6751,-3.6727,-3.6793,-3.6833,-3.6833,-3.6847,-3.6797,-3.6974,-3.6991,-3.7008,-3.7063,-3.7086,-3.6814,-3.6813,-3.6812,-3.6811,0,-3.7036,-3.706,-3.7108,-3.7086,-3.709,-3.7136,-3.7069,-3.7082,-3.7031,-3.6992,-3.7041,-3.7009,-3.7008,-3.7021,-3.6971,-3.7081,-3.7053,-3.6989,-3.6896,-3.7043,-3.7094,-3.7115,-3.6827,-3.6823,-3.6821,-3.6819,0,0,-3.729,-3.7228,-3.7246,-3.7236,-3.7198,-3.7215,-3.7258,-3.7258,-3.7271,-3.7259,-3.7293,-3.7316,-3.7257,-3.7253,-3.7201,-3.7241,-3.7375,-3.7172,-3.717,-3.7211,-3.7495,-3.7543,-3.7569,-3.7332,-3.7336,-3.7339,-3.7497,0,-3.7445,-3.7513,-3.7448,-3.7529,-3.7551,-3.7457,-3.7494,-3.7476,-3.7441,-3.7456,-3.7419,-3.7436,-3.7357,-3.7354,-3.739,-3.7351,-3.7431,-3.7339,-3.7364,-3.7366,-3.7372,-3.7595,-3.7645,-3.7796,-3.7517,-3.752,-3.7522,0,-3.7635,-3.7631,-3.7715,-3.7673,-3.768,-3.7715,-3.771,-3.7726,-3.7704,-3.7676,-3.7673,-3.7611,-3.7652,-3.7563,-3.7618,-3.7558,-3.7565,-3.7548,-3.7552,-3.7551,-3.7452,-3.76,-3.7843,-3.7866,-3.7553,-3.755,-3.7548,0,-3.7812,-3.7828,-3.7881,-3.7875,-3.7827,-3.7854,-3.7836,-3.781,-3.7815,-3.7812,-3.7814,-3.7817,-3.7818,-3.7822,-3.7763,-3.7704,-3.7827,-3.7733,-3.7806,-3.7808,-3.7834,-3.7833,-3.8082,-3.7841,-3.7841,-3.784,-3.784,0,-3.7992,-3.8047,-3.796,-3.7992,-3.8052,-3.7978,-3.8039,-3.8011,-3.799,-3.8016,-3.7935,-3.7962,-3.7882,-3.7901,-3.7856,-3.791,-3.7911,-3.7891,-3.7878,-3.7897,-3.79,-3.7899,-3.7887,-3.7846,-3.7845,-3.7844,-3.7843,0,-3.8199,-3.8142,-3.8193,-3.8145,-3.8135,-3.8181,-3.814,-3.8169,-3.8131,-3.8165,-3.8169,-3.8109,-3.8128,-3.807,-3.8079,-3.8048,-3.8127,-3.8097,-3.8134,-3.8125,-3.8201,-3.8195,-3.8458,-3.8489,-3.8229,-3.8232,-3.8234,0,-3.8316,-3.8357,-3.8314,-3.8325,-3.8311,-3.8331,-3.8336,-3.8266,-3.8275,-3.8255,-3.8287,-3.8299,-3.8304,-3.8339,-3.8297,-3.8304,-3.8274,-3.8365,-3.8274,-3.8293,-3.8275,-3.8273,-3.8277,-3.8384,-3.8387,-3.839,-3.8392,0,-3.8532,-3.8503,-3.8512,-3.8514,-3.8522,-3.852,-3.8512,-3.8526,-3.8451,-3.8466,-3.8484,-3.8488,-3.8499,-3.8512,-3.8511,-3.8493,-3.8431,-3.8421,-3.8438,-3.8458,-3.8478,-3.8469,-3.8185,-3.8415,-3.8413,-3.8411,-3.841,-3.8409,-3.8697,-3.8729,-3.8704,-3.8719,-3.8706,-3.8701,-3.8726,-3.8692,-3.8705,-3.8708,-3.8666,-3.8694,-3.8673,-3.8665,-3.8655,-3.8676,-3.8634,-3.8659,-3.8665,-3.8672,-3.8685,-3.8476,-3.8676,-3.8675,-3.8674,-3.8674,-3.8673,0,-3.8908,-3.8888,-3.8902,-3.8894,-3.8907,-3.8847,-3.8836,-3.8851,-3.8875,-3.8862,-3.8869,-3.8892,-3.8905,-3.8866,-3.8873,-3.8898,-3.887,-3.8903,-3.89,-3.8897,-3.8722,-3.8706,-3.8926,-3.8926,-3.8926,-3.8925,-3.8925,-3.8925,-3.9019,-3.9071,-3.904,-3.9085,-3.9064,-3.909,-3.9089,-3.9085,-3.9074,-3.9102,-3.9113,-3.9087,-3.9064,-3.907,-3.9081,-3.9069,-3.9075,-3.9118,-3.9097,-3.8934,-3.8909,-3.8886,-3.887,-3.912,-3.9121,-3.9269,-3.9271,-3.9272]},{"header":{"parameterUnit":"m.s-1","parameterCategory":1,"la1":30.2991,"la2":30.254,"lo1":-89.0895,"lo2":-89.0444,"dy":0.0017,"dx":0.0017,"nx":28,"ny":28,"refTime":"2025-09-01T03:00:00:Z","depth":0,"parameterNumber":3,"parameterNumberName":"V-component_of_WINDS"},"data":[0,0,0,0,0,0,0,0,0,0,0,0,0,0,0,0,0,0,0,0,0,0,0,0,0,0,0,0,0,0,0,0,0,0,0,0,0,0,0,0,0,0,0,0,0,0,0,0,0,0,0,0,0,0,0,0,0,0,2.1466,2.1466,0,2.1457,2.1457,2.1456,2.15,2.1501,2.1502,2.1504,2.1486,2.1484,2.1483,0,0,0,0,0,0,0,0,0,0,0,0,0,2.1516,2.1515,2.1466,2.1466,2.1466,2.1457,2.1457,2.1456,2.15,2.1501,2.1503,2.1504,2.1487,2.1485,2.1483,0,0,0,0,0,0,0,0,0,0,0,0,0,2.1499,2.1515,2.1466,2.1487,2.1488,2.1457,2.1457,2.1456,2.1499,2.1501,2.1503,2.1505,2.1487,2.1485,2.1482,2.1428,0,0,2.1475,2.1474,0,0,0,0,0,0,0,0,2.15,2.1497,2.1484,2.1485,2.1487,2.1482,2.1468,2.1447,2.1499,2.1495,2.1504,2.1506,2.1482,2.1481,2.1474,2.1428,2.1427,2.1475,2.1473,2.1472,2.1471,0,0,0,0,0,0,0,2.1501,2.1498,2.1462,2.1483,2.1485,2.1494,2.1494,2.1464,2.1478,2.1495,2.1499,2.1497,2.1484,2.1477,2.1474,2.1427,2.1475,2.1472,2.1471,2.147,2.1335,2.1333,0,0,0,0,0,0,2.1501,2.1499,2.1463,2.1462,2.1499,2.1492,2.1492,2.1481,2.1478,2.148,2.1496,2.1499,2.148,2.1477,2.1474,2.141,2.1472,2.147,2.1468,2.1337,2.1335,2.1333,0,0,0,0,0,0,2.1502,2.1497,2.1463,2.1481,2.1478,2.1489,2.1477,2.148,2.1473,2.1479,2.148,2.1486,2.1481,2.1477,2.144,2.141,2.1468,2.1466,2.134,2.1337,2.1334,2.1281,0,0,0,0,0,0,2.1503,2.1497,2.1478,2.1481,2.1477,2.1431,2.1475,2.1478,2.1469,2.1474,2.147,2.1471,2.1482,2.1443,2.1437,2.1407,2.1464,2.1342,2.1338,2.1335,2.1286,2.1277,2.1269,0,0,0,0,0,2.1504,2.1462,2.1476,2.1472,2.1453,2.1429,2.1426,2.1442,2.1467,2.1447,2.1451,2.1471,2.1415,2.1439,2.1433,2.1401,2.1344,2.134,2.1335,2.1289,2.1279,2.1269,0,0,0,0,0,0,2.1451,2.1462,2.1479,2.1436,2.1432,2.1436,2.1411,2.143,2.1417,2.1421,2.144,2.1439,2.1398,2.1396,2.1423,2.1349,2.1384,2.1377,2.1351,2.1341,2.1333,2.1332,2.1462,0,0,0,0,0,2.1436,2.1417,2.1427,2.1388,2.1386,2.1399,2.1389,2.1402,2.1397,2.1395,2.1396,2.1388,2.1369,2.1355,2.1338,2.1287,2.1286,2.1263,2.1254,2.1248,2.1241,2.1213,2.1203,2.1317,2.1317,2.1317,0,0,2.14,2.1404,2.1391,2.1378,2.1376,2.1354,2.1396,2.1372,2.1356,2.139,2.1355,2.1356,2.1349,2.1305,2.1285,2.1302,2.121,2.1242,2.1236,2.1233,2.1207,2.1196,2.1187,2.1314,2.1315,2.1315,0,0,2.1326,2.1328,2.1296,2.1294,2.1292,2.1302,2.1294,2.1297,2.13,2.1266,2.1291,2.1272,2.1238,2.1232,2.1225,2.1152,2.1169,2.1145,2.11,2.1074,2.1064,2.1056,2.1028,2.1018,2.1139,2.1139,2.1139,0,2.1282,2.1253,2.1276,2.1251,2.1243,2.1278,2.1244,2.1241,2.1232,2.1225,2.1246,2.1206,2.1203,2.1158,2.114,2.1134,2.1124,2.1144,2.1065,2.1057,2.1049,2.1023,2.1013,2.1136,2.1137,2.1137,2.1137,0,2.1198,2.1178,2.1152,2.1146,2.1136,2.1107,2.1124,2.1111,2.1126,2.1134,2.1098,2.1098,2.1081,2.1072,2.1085,2.1028,2.1039,2.1062,2.1096,2.1035,2.101,2.1,2.1132,2.1133,2.1134,2.1135,0,0,2.1086,2.1096,2.1085,2.1083,2.1085,2.1069,2.1041,2.1028,2.1016,2.1009,2.0985,2.0958,2.098,2.0971,2.0985,2.0961,2.0902,2.0987,2.0987,2.0969,2.0837,2.0818,2.0806,2.0916,2.0914,2.0913,2.0837,0,2.1011,2.0966,2.0987,2.0938,2.0919,2.0953,2.0929,2.0927,2.0933,2.0917,2.0924,2.0903,2.0935,2.093,2.0909,2.0913,2.0875,2.092,2.089,2.0889,2.0888,2.0793,2.0772,2.0701,2.0828,2.0826,2.0825,0,2.0917,2.091,2.086,2.0867,2.0859,2.0837,2.0827,2.0812,2.081,2.0816,2.0809,2.0828,2.08,2.0837,2.0797,2.0827,2.0817,2.0818,2.0816,2.081,2.0851,2.0783,2.0679,2.0667,2.0811,2.0812,2.0813,0,2.0837,2.0815,2.0783,2.078,2.0787,2.0771,2.0773,2.0774,2.0764,2.0755,2.0749,2.0736,2.0728,2.0717,2.0732,2.0758,2.0689,2.0728,2.0691,2.069,2.0671,2.0672,2.0562,2.067,2.0671,2.0671,2.0671,0,2.0749,2.0717,2.0747,2.0726,2.0691,2.0716,2.068,2.0685,2.0686,2.0666,2.0695,2.0675,2.0698,2.0679,2.0691,2.0655,2.0652,2.0655,2.0657,2.065,2.0649,2.0641,2.0645,2.0668,2.0669,2.0669,2.067,0,2.0652,2.0671,2.0638,2.0649,2.0652,2.0625,2.0633,2.0614,2.0625,2.0599,2.0594,2.061,2.059,2.0606,2.0586,2.0594,2.0546,2.0557,2.0547,2.0549,2.051,2.0513,2.0388,2.0372,2.0494,2.0493,2.0492,0,2.0593,2.0569,2.0579,2.057,2.0571,2.0554,2.0546,2.0571,2.056,2.0558,2.0539,2.0523,2.051,2.0477,2.0485,2.047,2.0479,2.0437,2.0477,2.047,2.0476,2.0476,2.0472,2.0427,2.0426,2.0425,2.0424,0,2.0486,2.0497,2.0486,2.0478,2.0468,2.0463,2.0459,2.0449,2.0474,2.0461,2.0443,2.0434,2.0416,2.0398,2.0387,2.0387,2.0408,2.0412,2.0403,2.0393,2.0387,2.0387,2.0521,2.0414,2.0415,2.0415,2.0416,2.0416,2.0404,2.0384,2.0389,2.0375,2.0376,2.0373,2.0356,2.0366,2.0352,2.0341,2.0356,2.0334,2.0333,2.0321,2.0319,2.03,2.0317,2.0303,2.0299,2.0295,2.0288,2.0393,2.0298,2.0299,2.0299,2.0299,2.0299,0,2.0296,2.0302,2.0289,2.0285,2.0274,2.03,2.0298,2.0286,2.0267,2.0267,2.0256,2.0235,2.0219,2.0228,2.0214,2.0197,2.0206,2.0192,2.0191,2.0191,2.0275,2.0284,2.0185,2.0185,2.0185,2.0185,2.0185,2.0185,2.0238,2.0206,2.0219,2.0188,2.0194,2.0174,2.017,2.0167,2.0167,2.0143,2.0131,2.0139,2.0141,2.0128,2.0114,2.0117,2.0109,2.0091,2.0097,2.0174,2.0185,2.0196,2.0204,2.009,2.009,2.0014,2.0013,2.0013]}]]